ARIANE 5 R/B, 45248

Orbit data source: Space-Track

ARIANE 5 R/B, 45248 is space debris in HEO originally from a launch on Tue, 18 Feb 2020 UTC launched from the French Guiana (FRGUI). Debris objects in space refer to the collection of defunct objects orbiting the Earth. Examples of debris include non-operational satellites, rocket bodies, and fragments generated from explosions, collisions, or faulty payload assembly.

Loading next visibility...
ARIANE 5 R/B details
Identifier
45248, 2020-013D
Orbit
HEO
Last TLE update17 hours ago
Origin
Flag of FRArianespace (FR)
ManufacturerArianeGroup
MissionSpacecraft
Bus & MotorESC-A, Unknown motor
Mass~5,000 kg wet, ~5,000 kg dry
Launch date (UTC)
2020-02-18 (5 years ago)
Launch vehicleUnknown
Launch site
French Guiana (FRGUI)
Object type
Payload
Rocket body
Debris
Shape & HBRCyl + 1 Nozzle, 7 m
Radar Cross Section41.627 m², Large (>1 m²)

Expand to show TLE details & history

TLE from 17 hours ago
0 ARIANE 5 R/B
1 45248U 20013D   24360.90369014  .00001996  00000-0  82904-3 0  9997
2 45248   5.6002 275.9735 7170469 233.7247  37.7044  2.40654665 41455
Epoch: 2024-12-25T21:41Z
Definitive object data (Epoch: 2024-12-25T21:41:18.828Z)
Latitude0.00024°
Longitude-143.91894°
Altitude13,629.297 km
Speed4.785 km/s
True Right ascension18h 25m 12s
True Declination0° 00' 01"
Sunlit
Object was in daylight at TLE epoch
Visualization TLE readout
Latitude5.62067°
Longitude-51.06102°
Altitude19,354.885 km
Speed3.746 km/s
Apparent Right ascension00h 53m 18s
Apparent Declination-2° 57' 34"
Sunlit
Object is in daylight
Visualization observer readout
Local Sidereal Time14:22:36
Azimuth34.443° NE
Elevation-47.874°
Doppler factor1
Orbital elements
Apogee altitude34,019.445 km
Perigee altitude279.003 km
Semi-major axis23,527.361 km
Eccentricity0.7170469
Inclination5.6002°
RAAN275.9735°
Arg. of periapsis233.7247°
True anomaly126.64514°
Mean anomaly37.7044°
Eccentric anomaly77.87106°
Mean motion0.60143 °/min
BSTAR0.00082904
Orbital period598.58 mins
Loading maneuver chart data...
Loading historical data...
Loading historical data...
Loading historical data...
Loading historical data...
Loading historical data...
Loading historical data...
Loading historical data...
Other satellites on launch #13 in the year 2020 (2020-02-18 UTC)

ARIANE 5 R/B Visibility forecast

Observer location: undefined°, undefined

Span
Click to sort rows by Start time (UTC) header in descending order
Start Az.
Max El. time (UTC)
Max El. Az.
Max El.
End time (UTC)
End Az.
546 mins2024-12-26 16:59:40.196Z191.539° SSW2024-12-26 23:28:40.196Z172.064° S36.822°2024-12-27 02:05:40.196Z130.164° SE
|